Location: Aldenham
(51.6667°N, 0.3500°W)
Time: 12:55:55
(UTC+00:00)

Altair - Pass Details

Date: 19 February 2026
Orbit: 1502 x 1682 km, 47.2° (Epoch: 17 March)

Event Time Altitude Azimuth Distance (km) Brightness Sun altitude
Rises 06:38:15 0° 257° (WSW) 4,647 - -5.3°
Exits shadow 06:38:44 - 257° (WSW) 4,488 9.4 -5.2°
Reaches altitude 10° 06:41:15 10° 255° (WSW) 3,678 9.0 -4.8°
Maximum altitude 06:50:25 68° 175° (S) 1,649 7.8 -3.4°
Drops below altitude 10° 06:59:56 10° 95° (E) 3,804 11.5 -2.0°
Sets 07:03:06 0° 93° (E) 4,814 12.2 -1.5°
